,

(GMT )
Juanda

Weather History for WARR - March, 2014

Change the Weather History Date:

Sunday, March 23, 2014

  Actual Average Record
Temperature  
Mean Temperature 83 °F -  
Max Temperature 91 °F - - ()
Min Temperature 75 °F - - ()
Cooling Degree Days 18    
Growing Degree Days 33 (Base 50)    
Moisture  
Dew Point 73 °F    
Average Humidity 72    
Maximum Humidity 94    
Minimum Humidity 22    
Precipitation  
Precipitation 0.00 in - - ()
Sea Level Pressure  
Sea Level Pressure 29.80 in    
Wind  
Wind Speed 4 mph ()    
Max Wind Speed 12 mph    
Max Gust Speed -    
Visibility 4.6 miles    
Events Thunderstorm    
T = Trace of Precipitation, MM = Missing Value Source: Averaged Metar Reports

Daily Weather History Graph

Daily Weather History Graph

Search for Another Location

Airport or City:

Trip Planner

Search our weather history database for the weather conditions in past years. The results will help you decide how hot, cold, wet, or windy it might be!

Date:

Astronomy

Mar. 23, 2014 Rise Set
Actual Time 5:32 AM WIB 5:38 PM WIB
Civil Twilight 5:11 AM WIB 5:59 PM WIB
Nautical Twilight 4:47 AM WIB 6:23 PM WIB
Astronomical Twilight 4:23 AM WIB 6:47 PM WIB
Moon 11:05 PM WIB (3/23) 10:56 AM WIB (3/23)
Length of Visible Light 12h 47m
Length of Day
12h 05m
Waning Gibbous, 60% of the Moon is Illuminated
Mar 23
Waning Gibbous
Mar 24
Last Quarter
Mar 31
New
Apr 7
First Quarter
Apr 15
Full

Hourly Weather History & Observations

Time (WIB) Temp. Heat Index Dew Point Humidity Pressure Visibility Wind Dir Wind Speed Gust Speed Precip Events Conditions
12:00 AM 77.0 °F - 73.4 °F 89% 29.83 in 3.7 mi WSW 3.5 mph - N/A   Partly Cloudy
12:30 AM 77.0 °F - 71.6 °F 83% 29.83 in 3.7 mi WSW 1.2 mph - N/A   Partly Cloudy
1:00 AM 77.0 °F - 35.6 °F 22% 29.83 in 3.7 mi West 2.3 mph - N/A   Partly Cloudy
2:00 AM 75.2 °F - 71.6 °F 89% 29.80 in 3.1 mi WNW 3.5 mph - N/A   Haze
2:30 AM 75.2 °F - 71.6 °F 89% 29.80 in 3.1 mi NW 3.5 mph - N/A   Haze
3:00 AM 75.2 °F - 71.6 °F 89% 29.80 in - North - - N/A   Haze
3:30 AM 75.2 °F - 71.6 °F 89% 29.80 in 3.1 mi WSW 1.2 mph - N/A   Haze
4:00 AM 75.2 °F - 71.6 °F 89% 29.80 in 3.1 mi WNW 1.2 mph - N/A   Haze
4:30 AM 75.2 °F - 71.6 °F 89% 29.80 in 3.1 mi South 2.3 mph - N/A   Haze
5:00 AM 75.2 °F - 71.6 °F 89% 29.80 in 3.1 mi Variable 1.2 mph - N/A   Haze
5:30 AM 75.2 °F - 71.6 °F 89% 29.80 in 1.9 mi West 2.3 mph - N/A   Haze
6:00 AM 75.2 °F - 73.4 °F 94% 29.83 in 1.9 mi SW 3.5 mph - N/A   Haze
6:30 AM 77.0 °F - 73.4 °F 89% 29.83 in 2.5 mi South 3.5 mph - N/A   Haze
7:00 AM 80.6 °F 87.1 °F 77.0 °F 89% 29.83 in 3.1 mi Variable 2.3 mph - N/A   Haze
7:30 AM 82.4 °F 90.9 °F 77.0 °F 84% 29.86 in 3.1 mi Calm Calm - N/A   Haze
8:00 AM 84.2 °F 92.3 °F 75.2 °F 74% 29.86 in 4.3 mi North 3.5 mph - N/A   Haze
8:30 AM 84.2 °F 90.9 °F 73.4 °F 70% 29.83 in 5.0 mi Variable 2.3 mph - N/A   Partly Cloudy
9:00 AM 86.0 °F 93.4 °F 73.4 °F 66% 29.83 in 5.0 mi Variable 3.5 mph - N/A   Partly Cloudy
9:30 AM 87.8 °F 95.6 °F 73.4 °F 62% 29.86 in 5.0 mi ESE 4.6 mph - N/A   Partly Cloudy
10:00 AM 87.8 °F 93.8 °F 71.6 °F 58% 29.83 in 5.0 mi WNW 8.1 mph - N/A   Partly Cloudy
10:30 AM 89.6 °F 96.2 °F 71.6 °F 55% 29.83 in 5.0 mi East 8.1 mph - N/A   Partly Cloudy
11:00 AM 87.8 °F 97.6 °F 75.2 °F 66% 29.83 in 5.0 mi East 8.1 mph - N/A   Partly Cloudy
11:30 AM 87.8 °F 97.6 °F 75.2 °F 66% 29.80 in 5.0 mi East 6.9 mph - N/A   Partly Cloudy
12:00 PM 89.6 °F 99.8 °F 75.2 °F 62% 29.77 in 5.0 mi East 6.9 mph - N/A   Partly Cloudy
12:30 PM 89.6 °F 99.8 °F 75.2 °F 62% 29.77 in 5.0 mi East 8.1 mph - N/A   Partly Cloudy
1:00 PM 89.6 °F 99.8 °F 75.2 °F 62% 29.74 in 5.0 mi ESE 6.9 mph - N/A   Partly Cloudy
1:30 PM 91.4 °F 100.1 °F 73.4 °F 55% 29.74 in 5.0 mi SE 6.9 mph - N/A   Partly Cloudy
2:00 PM 91.4 °F 98.4 °F 71.6 °F 52% 29.74 in 6.2 mi WNW 8.1 mph - N/A   Scattered Clouds
2:30 PM 89.6 °F 96.2 °F 71.6 °F 55% 29.74 in 6.2 mi WNW 8.1 mph - N/A   Partly Cloudy
3:00 PM 91.4 °F 100.1 °F 73.4 °F 55% 29.74 in 6.2 mi NNW 9.2 mph - N/A   Partly Cloudy
3:30 PM 91.4 °F 100.1 °F 73.4 °F 55% 29.74 in 6.2 mi NNW 8.1 mph - N/A   Partly Cloudy
4:00 PM 91.4 °F 98.4 °F 71.6 °F 52% 29.74 in 6.2 mi NW 9.2 mph - N/A   Partly Cloudy
4:30 PM 89.6 °F 98.2 °F 73.4 °F 59% 29.74 in 6.2 mi NNW 9.2 mph - N/A   Partly Cloudy
5:00 PM 87.8 °F 97.6 °F 75.2 °F 66% 29.74 in 6.2 mi NNE 11.5 mph - N/A   Partly Cloudy
5:30 PM 86.0 °F 93.4 °F 73.4 °F 66% 29.77 in 5.6 mi NNE 11.5 mph - N/A   Partly Cloudy
6:00 PM 86.0 °F 93.4 °F 73.4 °F 66% 29.77 in 5.6 mi NNE 9.2 mph - N/A   Partly Cloudy
6:30 PM 84.2 °F 90.9 °F 73.4 °F 70% 29.80 in 5.0 mi North 8.1 mph - N/A Thunderstorm Partly Cloudy
7:00 PM 84.2 °F 90.9 °F 73.4 °F 70% 29.80 in 5.0 mi North 9.2 mph - N/A Thunderstorm Light Thunderstorm
7:30 PM 84.2 °F 90.9 °F 73.4 °F 70% 29.80 in 5.0 mi North 9.2 mph - N/A Thunderstorm Light Thunderstorm
8:00 PM 84.2 °F 90.9 °F 73.4 °F 70% 29.83 in 5.0 mi North 6.9 mph - N/A Thunderstorm Light Thunderstorm
8:30 PM 84.2 °F 90.9 °F 73.4 °F 70% 29.83 in 5.0 mi North 5.8 mph - N/A Thunderstorm Thunderstorm
9:00 PM 82.4 °F 88.2 °F 73.4 °F 74% 29.83 in 5.0 mi North 6.9 mph - N/A Thunderstorm Thunderstorm
9:30 PM 82.4 °F 88.2 °F 73.4 °F 74% 29.83 in 5.0 mi North 6.9 mph - N/A Thunderstorm Thunderstorm
10:00 PM 80.6 °F 86.2 °F 75.2 °F 84% 29.86 in 5.0 mi SSW 4.6 mph - N/A   Scattered Clouds
10:30 PM 80.6 °F 86.2 °F 75.2 °F 84% 29.86 in 5.0 mi SW 4.6 mph - N/A   Partly Cloudy
11:00 PM 80.6 °F 86.2 °F 75.2 °F 84% 29.86 in 5.0 mi WSW 5.8 mph - N/A   Partly Cloudy
11:30 PM 80.6 °F 86.2 °F 75.2 °F 84% 29.86 in 5.0 mi SSW 6.9 mph - N/A   Partly Cloudy